Regional Weather Roundup
Issued by NWS Midland/Odessa, TX

Skip options and go directly to product.
Home | Oldest Version | Previous Version | Current Version | All | Text Only | Save Text | Print | Product List | Glossary Off

Skip product version selection by date and time.   

389
ASUS44 KMAF 300110
RWRMAF
MIDLAND AREA WEATHER ROUNDUP
NATIONAL WEATHER SERVICE MIDLAND TX
800 PM CDT WED JUN 29 2016

...IN SOUTHWEST TEXAS AND SOUTHEAST NEW MEXICO...

CITY           SKY/WX    TMP DP  RH WIND       PRES   REMARKS
ALPINE         SUNNY     82  56  41 SE12      30.19S
ANDREWS        FAIR      89  55  31 SE10      30.06S
ARTESIA        SUNNY     91  55  29 SE10      30.03S
BIG SPRING     SUNNY     88  58  36 E9        30.05S
CARLSBAD       SUNNY     92  51  24 SE12      30.01S
DRYDEN           N/A     92  59  33 NE13      29.97S
FORT STOCKTON  MOSUNNY   89  58  34 SE15      30.03S
GUAD PASS      SUNNY     80  53  39 E16       30.20S
HOBBS          SUNNY     90  50  25 E9        30.07S
MARFA          MOSUNNY  N/A N/A N/A SE15      30.16F
MIDLAND AIRPK  SUNNY     91  56  31 E9        30.05R
MIDLAND INTL   SUNNY     91  58  32 E10       30.04R
ODESSA         SUNNY     91  58  32 E12       30.05S
PECOS          SUNNY     92  56  29 E17       30.00R
PRESIDIO       FAIR      91  56  30 NE13G21   29.99F
SEMINOLE       SUNNY     89  51  27 SE12      30.07R
SNYDER           N/A     88  64  44 E8        30.04S
WINK           MOSUNNY   90  61  37 SE10      30.01R
$$
...OTHER STATIONS IN TEXAS...

CITY           SKY/WX    TMP DP  RH WIND       PRES   REMARKS
ABILENE        CLEAR     87  67  51 SE13      30.02R
AMARILLO       CLOUDY    84  60  44 SE14      30.07R
AUSTIN         PTCLDY    89  70  53 E7        29.93R
BROWNSVILLE    PTCLDY    84  76  76 E14       29.92R
CORPUS CHRISTI CLOUDY    86  74  67 SE9       29.90R
DALLAS FTW     PTCLDY    91  68  46 E9        29.96S
DEL RIO        CLEAR     96  61  31 E8        29.89S
EL PASO        MOSUNNY   92  51  24 E13       30.02S
HOUSTON INT    PTCLDY    86  74  67 SE8       29.91R
LUBBOCK        PTSUNNY   91  53  27 SE16      30.05S
SAN ANGELO     CLEAR     87  66  49 E5        30.00R
SAN ANTONIO    PTCLDY    90  63  40 E8        29.95R
WACO           CLEAR     89  66  46 E6        29.95R
WICHITA FALLS  NOT AVBL
$$
...OTHER LOCATIONS IN NEW MEXICO...

CITY           SKY/WX    TMP DP  RH WIND       PRES   REMARKS
ALAMAGORDO     MOSUNNY   88  50  27 S13       30.06S
ALBUQUERQUE    PTSUNNY   89  41  18 SW9       30.12F
CANNON AFB     NOT AVBL
CLOVIS         SUNNY     88  54  31 S14       30.10R
HOLLOMAN AFB   CLOUDY    92  50  23 SE20      30.03R
ROSWELL        SUNNY     94  49  21 SE12      30.03R
RUIDOSO        LGT RAIN  77  45  31 SE14G22   30.29S
SANTA FE       CLOUDY    83  42  23 E17       30.23R
TRUTH OR CONSE PTSUNNY   89  48  24 SE6       30.08S
TUCUMCARI      SUNNY     94  43  17 SW9       30.04R
$$

USA.gov is the U.S. government's official web portal to all federal, state and local government web resources and services.